Total_Precipitation_Accumulation
0.16 0.17 0.18 0.22 0.23 0.16 0.08 0.05 0.07 0.07 0.07 0.03 0.00 0.00 0.00 0.00 0.00 0.00 0.00 0.00 0.00 0.00 0.00 0.00 0.01 0.01 0.01 0.02 0.03 0.04 0.09 0.20 0.52 0.83 0.70 0.56 0.51 0.58
0.11 0.09 0.10 0.14 0.19 0.19 0.17 0.08 0.04 0.07 0.10 0.05 0.00 0.00 0.00 0.00 0.00 0.00 0.00 0.00 0.00 0.00 0.00 0.00 0.01 0.01 0.01 0.01 0.01 0.01 0.01 0.05 0.25 0.73 0.84 0.71 0.70 0.79
0.16 0.11 0.11 0.11 0.20 0.23 0.23 0.14 0.08 0.06 0.09 0.05 0.00 0.00 0.00 0.00 0.00 0.00 0.00 0.00 0.00 0.00 0.00 0.00 0.01 0.01 0.00 0.00 0.00 0.00 0.00 0.01 0.04 0.17 0.35 0.44 0.60 0.82
0.20 0.14 0.13 0.12 0.16 0.20 0.22 0.17 0.12 0.07 0.07 0.07 0.01 0.00 0.00 0.00 0.00 0.00 0.00 0.00 0.00 0.00 0.00 0.00 0.01 0.01 0.01 0.00 0.00 0.00 0.00 0.00 0.01 0.03 0.11 0.21 0.29 0.42
0.16 0.12 0.14 0.15 0.14 0.17 0.19 0.17 0.13 0.08 0.05 0.06 0.03 0.01 0.00 0.00 0.00 0.00 0.00 0.00 0.00 0.00 0.00 0.00 0.00 0.01 0.01 0.00 0.00 0.00 0.00 0.00 0.00 0.01 0.02 0.06 0.12 0.16
0.13 0.11 0.12 0.10 0.08 0.11 0.15 0.15 0.15 0.11 0.07 0.05 0.03 0.01 0.00 0.00 0.00 0.00 0.00 0.00 0.00 0.00 0.00 0.00 0.00 0.00 0.01 0.00 0.00 0.00 0.00 0.00 0.00 0.00 0.00 0.01 0.02 0.05
0.17 0.15 0.11 0.10 0.09 0.09 0.11 0.17 0.19 0.16 0.12 0.07 0.03 0.01 0.00 0.00 0.00 0.00 0.00 0.00 0.00 0.00 0.00 0.00 0.00 0.00 0.00 0.00 0.00 0.00 0.00 0.00 0.00 0.00 0.00 0.00 0.00 0.00
0.14 0.16 0.20 0.17 0.11 0.06 0.07 0.12 0.15 0.17 0.14 0.09 0.05 0.02 0.01 0.01 0.00 0.00 0.00 0.00 0.00 0.00 0.00 0.00 0.00 0.00 0.00 0.00 0.00 0.00 0.00 0.00 0.00 0.00 0.00 0.00 0.00 0.00
0.12 0.13 0.17 0.20 0.24 0.20 0.13 0.09 0.09 0.15 0.21 0.19 0.13 0.08 0.07 0.04 0.01 0.00 0.00 0.00 0.00 0.00 0.00 0.00 0.00 0.00 0.00 0.00 0.00 0.00 0.00 0.00 0.00 0.00 0.00 0.00 0.00 0.00
0.20 0.17 0.17 0.17 0.20 0.29 0.31 0.23 0.17 0.18 0.27 0.20 0.16 0.22 0.18 0.09 0.03 0.01 0.00 0.00 0.00 0.00 0.00 0.00 0.00 0.00 0.00 0.00 0.00 0.00 0.00 0.00 0.00 0.00 0.00 0.00 0.00 0.00
0.19 0.18 0.16 0.16 0.20 0.26 0.28 0.26 0.23 0.21 0.37 0.39 0.37 0.31 0.21 0.10 0.03 0.01 0.00 0.00 0.00 0.00 0.00 0.00 0.00 0.00 0.00 0.00 0.00 0.00 0.00 0.00 0.00 0.00 0.00 0.00 0.00 0.00
0.21 0.18 0.19 0.18 0.19 0.18 0.16 0.18 0.19 0.23 0.25 0.24 0.26 0.24 0.18 0.12 0.04 0.01 0.01 0.00 0.00 0.00 0.00 0.00 0.00 0.00 0.00 0.00 0.00 0.00 0.00 0.00 0.00 0.00 0.00 0.00 0.00 0.00
0.19 0.21 0.20 0.20 0.17 0.16 0.15 0.16 0.20 0.27 0.26 0.25 0.25 0.19 0.12 0.08 0.05 0.03 0.02 0.01 0.00 0.00 0.00 0.00 0.00 0.00 0.00 0.00 0.00 0.00 0.00 0.00 0.00 0.00 0.00 0.00 0.00 0.00
0.15 0.13 0.13 0.14 0.14 0.14 0.14 0.14 0.16 0.21 0.18 0.18 0.18 0.17 0.12 0.08 0.07 0.05 0.05 0.03 0.01 0.00 0.00 0.00 0.00 0.00 0.00 0.00 0.00 0.00 0.00 0.00 0.00 0.00 0.00 0.00 0.00 0.00
0.10 0.07 0.08 0.11 0.11 0.10 0.10 0.12 0.12 0.16 0.18 0.18 0.14 0.15 0.17 0.16 0.13 0.09 0.06 0.03 0.01 0.00 0.00 0.00 0.00 0.00 0.00 0.00 0.00 0.00 0.00 0.00 0.00 0.00 0.00 0.00 0.00 0.00
0.04 0.02 0.04 0.06 0.07 0.08 0.10 0.10 0.12 0.22 0.27 0.25 0.22 0.18 0.17 0.16 0.14 0.11 0.09 0.06 0.03 0.01 0.00 0.00 0.00 0.00 0.00 0.00 0.00 0.00 0.00 0.00 0.00 0.00 0.00 0.00 0.00 0.00
0.06 0.03 0.02 0.02 0.03 0.03 0.04 0.08 0.17 0.26 0.33 0.30 0.25 0.19 0.14 0.13 0.13 0.11 0.10 0.08 0.06 0.03 0.02 0.01 0.00 0.00 0.00 0.00 0.00 0.00 0.00 0.00 0.00 0.00 0.00 0.00 0.00 0.00
0.07 0.06 0.05 0.04 0.03 0.02 0.02 0.04 0.10 0.19 0.27 0.34 0.32 0.27 0.19 0.15 0.13 0.12 0.12 0.10 0.08 0.06 0.04 0.02 0.01 0.00 0.00 0.00 0.00 0.00 0.00 0.00 0.00 0.00 0.00 0.00 0.00 0.00
0.09 0.08 0.06 0.04 0.02 0.02 0.03 0.03 0.04 0.08 0.15 0.23 0.31 0.34 0.34 0.29 0.24 0.19 0.16 0.13 0.12 0.10 0.07 0.04 0.03 0.02 0.01 0.00 0.00 0.00 0.00 0.00 0.00 0.00 0.00 0.00 0.00 0.00
0.05 0.05 0.04 0.03 0.02 0.02 0.02 0.03 0.04 0.03 0.05 0.10 0.16 0.23 0.32 0.38 0.39 0.35 0.33 0.30 0.25 0.21 0.17 0.12 0.08 0.05 0.03 0.02 0.01 0.00 0.00 0.00 0.00 0.00 0.00 0.00 0.00 0.00
0.02 0.02 0.02 0.02 0.01 0.01 0.01 0.01 0.03 0.04 0.04 0.05 0.07 0.11 0.17 0.24 0.33 0.39 0.42 0.47 0.46 0.41 0.36 0.28 0.23 0.21 0.14 0.09 0.05 0.02 0.01 0.01 0.00 0.00 0.00 0.00 0.00 0.00
0.01 0.02 0.02 0.02 0.01 0.01 0.02 0.01 0.01 0.02 0.03 0.04 0.05 0.07 0.09 0.12 0.18 0.25 0.30 0.33 0.35 0.38 0.41 0.42 0.40 0.37 0.28 0.19 0.13 0.08 0.05 0.03 0.01 0.00 0.00 0.00 0.00 0.00
0.01 0.01 0.01 0.02 0.02 0.03 0.07 0.09 0.06 0.03 0.04 0.05 0.06 0.07 0.07 0.09 0.11 0.14 0.18 0.21 0.25 0.28 0.32 0.33 0.32 0.29 0.26 0.22 0.19 0.15 0.09 0.05 0.02 0.01 0.00 0.00 0.00 0.00